User: anonymous   Login
Location: Ballingbuur
(53.0000°N, 5.7667°E)
Time: 20:59:14
(UTC+00:00)
Language:

Meteor 1-31 Rocket - Orbit

View from above orbital plane
View from above orbital plane
View from above satellite
View from above satellite

Ground track
Ground track

The orbit data is extracted from the following two-line orbital elements,

1 12586U 81065B   21055.56677564  .00000677  00000-0  44453-4 0  9995
2 12586  97.6477  43.6172 0017154 252.4904 107.4451 15.10948695155888
Epoch (UTC): 24 February 2021 13:36:09
Eccentricity: 0.0017154
inclination: 97.6477°
perigee height: 521 km
apogee height: 545 km
right ascension of ascending node: 43.6172°
argument of perigee: 252.4904°
revolutions per day: 15.10948695
mean anomaly at epoch: 107.4451°
orbit number at epoch: 15588

The dashed part of the orbit path shows where the satellite is in the earth's shadow,  

DLR